Location: Chassagnes
(44.4047°N, 4.1657°E)
Time: 13:08:09
(UTC+00:00)

Geosat - Pass Details

Date: 27 October 2020
Orbit: 763 x 766 km, 108.0° (Epoch: 23 November)

Event Time Altitude Azimuth Distance (km) Brightness Sun altitude
Exits shadow 19:06:43 31° 9° (N) 1,334 5.2 -26.9°
Maximum altitude 19:09:02 60° 302° (WNW) 879 4.4 -27.3°
Drops below altitude 10° 19:13:57 10° 224° (SW) 2,299 6.8 -28.1°
Sets 19:16:14 0° 220° (SW) 3,221 7.6 -28.5°
